{"data":{"norad_id":56370,"intl_designator":"2023-060A","name":"VIASAT-3 F1","alt_names":[],"object_type":"PAYLOAD","status":"ACTIVE","operator":null,"country":"US","launch_date":"2023-05-01","launch_site_code":"AFETR","launch_vehicle":null,"mission":null,"orbit_class":"UNKNOWN","rcs_meters":null,"size_class":null,"mass_kg":null,"dimensions":null,"purposes":["comms"],"wikipedia_slug":null,"has_3d_model":false,"image_url":null,"decayed_at":null,"tle_current":{"epoch":"2026-09-19T14:50:18.589344Z","epoch_age_seconds":94498,"freshness":"FRESH","line1":"1 56370U 23060A   26262.61827071  .00000000  00000+0  00000+0 0  9990","line2":"2 56370   0.0203 191.9020 0000672 352.2194 308.0209  1.00269189 12383","mean_motion":1.00269189,"eccentricity":6.72e-5,"inclination_deg":0.0203,"raan_deg":191.902,"arg_perigee_deg":352.2194,"mean_anomaly_deg":308.0209,"bstar":0,"rev_number":1238,"period_min":1436.1340850179,"perigee_km":35784.489211036,"apogee_km":35790.156248823,"semimajor_km":42165.45972993,"source":"CELESTRAK","updated_at":"2026-09-20T09:00:35.332062Z"}}}